Weather History for Ballenas Island, BC

Change the Weather History Date:

Saturday, July 27, 2013

  Actual Average Record
Temperature  
Mean Temperature 65 °F -  
Max Temperature 70 °F - - ()
Min Temperature 60 °F - - ()
Growing Degree Days 15 (Base 50)    
Moisture  
Dew Point 54 °F    
Average Humidity 69    
Maximum Humidity 77    
Minimum Humidity 57    
Precipitation  
Precipitation 0.00 in - - ()
Sea Level Pressure  
Sea Level Pressure 30.06 in    
Wind  
Wind Speed 19 mph ()    
Max Wind Speed 29 mph    
Max Gust Speed 28 mph    
T = Trace of Precipitation, MM = Missing Value Source: Averaged Metar Reports

Daily Weather History Graph

Daily Weather History Graph

Search for Another Location

Airport:

Trip Planner

Search our weather history database for the weather conditions in past years. The results will help you decide how hot, cold, wet, or windy it might be!

Date:

Astronomy

Jul. 27, 2013 Rise Set
Actual Time 5:42 AM PDT 9:03 PM PDT
Civil Twilight 5:03 AM PDT 9:41 PM PDT
Nautical Twilight 4:11 AM PDT 10:33 PM PDT
Astronomical Twilight 3:03 AM PDT 11:40 PM PDT
Moon 11:13 PM PDT (7/27) 12:06 PM PDT (7/27)
Length of Visible Light 16h 38m
Length of Day
15h 21m
Waning Gibbous, 70% of the Moon is Illuminated
Jul 27
Waning Gibbous
Jul 29
Last Quarter
Aug 6
New
Aug 14
First Quarter
Aug 20
Full

Hourly Weather History & Observations

Time (PDT) Temp. Dew Point Humidity Pressure Visibility Wind Dir Wind Speed Gust Speed Precip Events Conditions
12:00 AM 64.0 °F 54.9 °F 72% 30.09 in - WNW 28.8 mph - N/A   Unknown
1:00 AM 63.5 °F 54.3 °F 72% 30.11 in - West 19.6 mph 25.3 mph N/A   Unknown
2:00 AM 63.0 °F 53.4 °F 71% 30.10 in - West 20.7 mph - N/A   Unknown
3:00 AM 61.7 °F 53.8 °F 75% 30.11 in - WNW 21.9 mph - N/A   Unknown
4:00 AM 61.2 °F 52.9 °F 74% 30.11 in - WNW 24.2 mph - N/A   Unknown
5:00 AM 61 °F 53 °F 67% 30.11 in - WNW 25.3 mph - -  
5:00 AM 61.0 °F 52.9 °F 75% 30.11 in - WNW 25.3 mph - N/A   Unknown
6:00 AM 60.6 °F 53.2 °F 77% 30.11 in - WNW 24.2 mph - N/A   Unknown
7:00 AM 61.2 °F 53.8 °F 77% 30.12 in - WNW 24.2 mph - N/A   Unknown
8:00 AM 61.5 °F 53.4 °F 75% 30.12 in - WNW 19.6 mph - N/A   Unknown
9:00 AM 61.7 °F 53.8 °F 75% 30.12 in - WNW 19.6 mph 26.5 mph N/A   Unknown
10:00 AM 61.3 °F 52.5 °F 73% 30.12 in - West 20.7 mph 27.6 mph N/A   Unknown
11:00 AM 62 °F 53 °F 66% 30.11 in - West 21.9 mph - -  
11:00 AM 62.4 °F 53.4 °F 72% 30.11 in - West 21.9 mph - N/A   Unknown
12:00 PM 63.3 °F 52.3 °F 67% 30.10 in - West 19.6 mph - N/A   Unknown
1:00 PM 64.4 °F 53.1 °F 67% 30.08 in - West 16.1 mph - N/A   Unknown
2:00 PM 66.4 °F 54.0 °F 64% 30.06 in - West 17.3 mph - N/A   Unknown
3:00 PM 67.1 °F 53.6 °F 62% 30.05 in - West 16.1 mph - N/A   Unknown
4:00 PM 68.5 °F 53.1 °F 58% 30.03 in - West 12.7 mph - N/A   Unknown
5:00 PM 68 °F 56 °F 57% 30.01 in - West 11.5 mph - -  
5:00 PM 68.4 °F 56.1 °F 65% 30.01 in - West 11.5 mph - N/A   Unknown
6:00 PM 69.3 °F 55.0 °F 60% 29.99 in - West 16.1 mph - N/A   Unknown
7:00 PM 69.8 °F 55.2 °F 60% 29.98 in - West 12.7 mph - N/A   Unknown
8:00 PM 68.0 °F 57.6 °F 69% 29.97 in - West 13.8 mph - N/A   Unknown
9:00 PM 66.4 °F 57.2 °F 72% 29.97 in - West 19.6 mph - N/A   Unknown
10:00 PM 65.3 °F 56.5 °F 73% 29.98 in - West 18.4 mph - N/A   Unknown
11:00 PM 65 °F 56 °F 66% 29.98 in - West 19.6 mph - -  
11:00 PM 64.6 °F 56.5 °F 75% 29.98 in - West 19.6 mph - N/A   Unknown